カタログに戻る

GHGSAT-C8

運用中科学SSO
NORAD 56186·PAYLOAD·🇨🇦 Canada

打ち上げ Apr 15, 2023 から Vandenberg Space Force Base

Loading…

次のパス (今後24時間)

TLE

最新Source: Space-Track

元期: Sep 14, 2026, 14:09 UTC

1 56186U 23054J   26257.59011454  .00013953  00000-0  20626-3 0  9991
2 56186  97.2894 168.4538 0006496  96.1830 264.0165 15.55410427192329

AllMySatでGHGSAT-C8をリアルタイム追跡

Download on the App Store